Regional Weather Roundup
Issued by NWS

Home | Current Version | Previous Version | Graphics & Text | Print | Product List | Glossary On
Versions: 1 2 3 4 5 6 7 8 9 10 11 12 13 14 15 16 17 18 19 20 21 22 23 24 25 26 27 28 29 30 31 32 33 34 35 36 37 38 39 40 41 42 43 44 45 46 47 48 49 50
797
ASUS43 KLMK 281110
RWRKY
KENTUCKY REGIONAL WEATHER ROUNDUP
NATIONAL WEATHER SERVICE LOUISVILLE KY
700 AM EDT SAT MAY 28 2016

NOTE "FAIR" INDICATES FEW OR NO CLOUDS BELOW 12,000 FEET
WITH NO SIGNIFICANT WEATHER AND/OR OBSTRUCTIONS TO VISIBILITY.

KYZ001>023-026-027-061>063-070>075-281200-
WESTERN AND SOUTH CENTRAL KENTUCKY

CITY           SKY/WX    TMP DP  RH WIND       PRES   REMARKS
PADUCAH        CLOUDY    71  64  78 SE7       29.96R
HENDERSON      CLOUDY    72  63  73 SE7       29.97R
OWENSBORO      CLOUDY    71  67  87 SE8       30.01R
HOPKINSVILLE   CLOUDY    71  66  84 SE5       30.01R
BOWLING GREEN  CLOUDY    70  67  90 CALM      30.04R
GLASGOW        CLOUDY    69  68  99 SE3       30.05S
$$

KYZ024-025-028>034-038-045-046-053-281200-
NORTH CENTRAL KENTUCKY

CITY           SKY/WX    TMP DP  RH WIND       PRES   REMARKS
LOUISVILLE/SDF CLOUDY    69  66  90 SE8       30.04R
LOUISVILLE/LOU CLOUDY    70  66  87 SE3       30.05R
FORT KNOX      CLOUDY    69  67  92 SE3       30.03R
$$

KYZ035>037-039>044-047>052-055>060-089>105-281200-
NORTHEAST KENTUCKY

CITY           SKY/WX    TMP DP  RH WIND       PRES   REMARKS
LEXINGTON      CLEAR     68  63  84 S7        30.09R
COVINGTON      PTCLDY    67  65  93 S7        30.06
FRANKFORT      PTCLDY    67  63  87 SE5       30.06R
$$

KYZ054-064>069-076>088-106>120-281200-
SOUTHEAST KENTUCKY

CITY           SKY/WX    TMP DP  RH WIND       PRES   REMARKS
JACKSON        PTCLDY    66  63  90 CALM      30.13R
LONDON         CLEAR     64  61  90 CALM      30.12R
SOMERSET       CLEAR     61  61 100 CALM      30.12R FOG
MIDDLESBORO    FOG       60  60 100 CALM      30.15R VSB<1/4
MONTICELLO     MOSUNNY   68  63  84 NE9       30.11R
$$





USA.gov is the U.S. government's official web portal to all federal, state and local government web resources and services.